User: anonymous   Login
Location: Unspecified
(0.0000°N, 0.0000°E)
Time: 09:05:16
(UTC+01:00)
Language:

Cosmos 1315 Rocket - Orbit

View from above orbital plane
View from above orbital plane
View from above satellite
View from above satellite

Ground track
Ground track

The orbit data is extracted from the following two-line orbital elements,

1 12904U 81103B   17081.89441880 +.00000920 +00000-0 +62335-4 0  9992
2 12904 081.1800 014.1129 0028453 351.3223 008.7503 15.05219949479621
Epoch (UTC): 22 March 2017 21:27:57
Eccentricity: 0.0028453
inclination: 81.1800°
perigee height: 531 km
apogee height: 570 km
right ascension of ascending node: 14.1129°
argument of perigee: 351.3223°
revolutions per day: 15.05219949
mean anomaly at epoch: 8.7503°
orbit number at epoch: 47962

The dashed part of the orbit path shows where the satellite is in the earth's shadow,  

DLR